CZ-6A DEB

Satellite information

Favourite Embed

Satellite Type and Status

DEBRISIN ORBIT

Key statistics

Satellite CZ-6A DEB at a glance.

Uptime

1078

Days in orbit

Revolutions

≈ 14.3

Per day

Orbit

SSO

Sun Synchronous Orbit

Inclination

98.7

Latest

Satellite identification and parameters

Extended collection of information and parameters for CZ-6A DEB.

Object identification

Identified? True

Debris? True

Object name: CZ-6A DEB

International designator: 2022-151GL

Object number (NORAD): 54460

Object ID (CCSDS): 54460

Country: PEOPLES REPUBLIC OF CHINA (PRC)

Current information (Y/N): Y

RCS size: SMALL

Orbital parameters

Period: 100.384 minutes

Inclination: 98.7024 deg

SMA: 7154.873 km

Apoapsis: 866.275 km

Periapsis: 687.2 km

RAAN: 323.2137 deg

Eccentricy: 0.01251419

Argument of periapsis: 50.9894 deg

Mean anomaly: 310.2354 deg

Mean motion: 14.34497792 rev/day

Mean motion (dot): 0.00002557 rev/day2

B* drag term: 0.00084524749 1/REarth

Two-line elements (TLE)

Creation date: Oct. 24, 2025, 2:48 a.m.

Reference frame: TEME

Reference center: EARTH

Epoch: Oct. 23, 2025, 3:58 p.m. UTC

TLE line 0: 0 CZ-6A DEB

TLE line 1: 1 54460U 22151GL 25296.66578647 .00002557 00000-0 84525-3 0 9999

TLE line 2: 2 54460 98.7024 323.2137 0125142 50.9894 310.2354 14.34497792153728

Live tracking on map

Real-time ground track for satellite CZ-6A DEB.

In-orbit conjunctions

A list of the most updated potential collisions computed for object CZ-6A DEB.

Target Orbit TCA Probability of collision Miss distance Type
COSMOS 1371 LEO 2025-01-03 23:30:24 0.0003680106 533.0 (m) PAYLOAD
COSMOS 2251 DEB LEO 2024-09-18 18:37:36 0.0001042452 222.0 (m) DEBRIS

Associated space launch

Chinese satellite reported for atmospheric/ocean/environmental/spatial parameter research purposes, details TBD.

CZ-6A DEB was lifted into orbit during the mission ‘Long March 6A | Yunhai 3’, on board a Long March 6A space rocket.

The launch took place on Nov. 11, 2022, 10:52 p.m. from Launch Complex 9A.

For more information about the launch, click the button.

Launch to space Long March 6A | Yunhai 3
Long March 6A | Yunhai 3

Agency: N/A

Status: Launch Successful

Launch date: Nov. 11, 2022, 10:52 p.m. UTC

Rocket: Long March 6A

Launch pad: Launch Complex 9A

Location: Taiyuan Satellite Launch Center, People's Republic of China

...

Latest news about this satellite

There are no fresh news available about this satellite. Check back as we update our databases every day.


Newsletter sign-up

Weekly statistics, charts and insights to help you stay on top of the space industry.